Location: ??
(35.5653°N, 139.6194°E)
Time: 05:37:06
(UTC+00:00)

Cosmos 1437 - Pass Details

Date: 20 November 2019
Orbit: 380 x 384 km, 81.2° (Epoch: 10 December)

Event Time Altitude Azimuth Distance (km) Brightness Sun altitude
Rises 20:01:14 0° 197° (SSW) 2,241 6.4 -16.4°
Reaches altitude 10° 20:03:15 10° 203° (SSW) 1,395 5.3 -16.0°
Maximum altitude 20:06:12 50° 280° (W) 494 2.7 -15.5°
Drops below altitude 10° 20:09:11 10° 357° (N) 1,409 5.2 -14.9°
Sets 20:11:14 0° 3° (N) 2,268 6.4 -14.5°
